FW7021 Weather Reports


time (UTC)temp
F
wind
direction
speed
knots
gust
knots
rain 1hr
in
rain 24hr
in
rain mn
in
humidity
%
barometer
mb
20220124103541 26 175 0.0 0.9 0.00 0.00 0.00 85 1012.6
20220124103041 26 181 0.0 0.0 0.00 0.00 0.00 85 1012.6
20220124102540 26 181 0.0 0.0 0.00 0.00 0.00 85 1012.5
20220124102040 26 178 0.0 0.0 0.00 0.00 0.00 86 1012.4
20220124101539 27 168 0.0 0.9 0.00 0.00 0.00 86 1012.2
20220124101039 27 171 0.0 0.0 0.00 0.00 0.00 88 1012.3
20220124100538 27 176 0.0 0.0 0.00 0.00 0.00 88 1012.3
20220124100036 27 176 0.0 0.0 0.00 0.00 0.00 88 1012.4
20220124095535 27 177 0.0 0.0 0.00 0.00 0.00 88 1012.4
20220124095035 27 176 0.9 0.9 0.00 0.00 0.00 87 1012.3
20220124094535 27 176 0.0 0.0 0.00 0.00 0.00 87 1012.3
20220124094035 27 176 0.0 0.0 0.00 0.00 0.00 87 1012.1
20220124093532 27 176 0.0 0.0 0.00 0.00 0.00 87 1011.9
20220124093031 27 176 0.0 0.0 0.00 0.00 0.00 87 1012.3
20220124092529 27 176 0.0 0.0 0.00 0.00 0.00 88 1011.8
20220124092028 27 176 0.0 0.0 0.00 0.00 0.00 88 1012.0
20220124091527 27 176 0.0 0.0 0.00 0.00 0.00 88 1012.0
20220124091027 27 176 0.0 0.0 0.00 0.00 0.00 88 1011.9
20220124090525 26 176 0.0 0.0 0.00 0.00 0.00 88 1011.7
20220124090024 26 177 0.0 0.0 0.00 0.00 0.00 88 1011.9
20220124085523 26 176 0.0 0.0 0.00 0.00 0.00 88 1011.8
20220124085022 27 177 0.0 0.0 0.00 0.00 0.00 88 1011.8
20220124084521 27 176 0.0 0.0 0.00 0.00 0.00 88 1011.7
20220124084020 27 176 0.0 0.0 0.00 0.00 0.00 87 1011.7
20220124083519 27 176 0.9 0.9 0.00 0.00 0.00 87 1011.5
20220124083019 28 176 0.0 0.9 0.00 0.00 0.00 86 1011.4
20220124082518 28 178 0.9 0.9 0.00 0.00 0.00 85 1010.9
20220124082018 28 188 0.9 1.7 0.00 0.00 0.00 85 1010.8
20220124081518 29 193 1.7 1.7 0.00 0.00 0.00 86 1010.8
20220124081018 29 193 0.0 0.0 0.00 0.00 0.00 86 1010.8
20220124080516 29 193 1.7 1.7 0.00 0.00 0.00 86 1011.0
20220124080015 29 187 0.9 0.9 0.00 0.00 0.00 86 1010.9
20220124075515 29 183 0.0 0.0 0.00 0.00 0.00 87 1010.9
20220124075015 29 175 0.0 0.9 0.00 0.00 0.00 87 1010.8
20220124074515 29 185 0.0 0.0 0.00 0.00 0.00 87 1010.9
20220124074015 29 178 0.0 0.0 0.00 0.00 0.00 88 1011.0
20220124073515 28 178 0.0 0.9 0.00 0.00 0.00 88 1010.9
20220124073014 28 190 0.0 0.0 0.00 0.00 0.00 88 1010.8
20220124072513 29 191 0.0 0.0 0.00 0.00 0.00 88 1010.8
20220124072011 29 191 0.0 0.0 0.00 0.00 0.00 88 1010.8
20220124071511 29 191 0.0 0.0 0.00 0.00 0.00 87 1010.6
20220124071009 29 191 0.0 0.0 0.00 0.00 0.00 87 1010.7
20220124070507 29 181 0.0 0.0 0.00 0.00 0.00 87 1010.6
20220124070005 29 180 0.0 0.9 0.00 0.00 0.00 87 1010.6
20220124065503 28 172 0.9 0.9 0.00 0.00 0.00 87 1010.4
20220124065003 28 183 0.9 0.9 0.00 0.00 0.00 88 1010.4
20220124064501 28 185 0.0 0.0 0.00 0.00 0.00 87 1010.1
20220124063959 28 184 0.0 0.0 0.00 0.00 0.00 87 1010.1
20220124063459 28 184 0.0 0.0 0.00 0.00 0.00 87 1010.4
20220124062959 28 184 0.0 0.0 0.00 0.00 0.00 87 1010.3
20220124062458 28 184 0.0 0.0 0.00 0.00 0.00 86 1010.2
20220124061957 29 184 0.0 0.0 0.00 0.00 0.00 86 1010.2
20220124061456 29 164 0.0 0.9 0.00 0.00 0.00 86 1010.3
20220124060954 29 183 0.0 0.0 0.00 0.00 0.00 86 1010.2
20220124060453 29 183 0.0 0.0 0.00 0.00 0.00 86 1010.1
20220124055951 29 183 0.0 0.0 0.00 0.00 0.00 85 1010.0
20220124055450 30 184 0.0 0.0 0.00 0.00 0.00 84 1010.0
20220124054948 30 187 0.0 0.0 0.00 0.00 0.00 84 1009.9
20220124054447 30 162 1.7 1.7 0.00 0.00 0.00 85 1010.1
20220124053946 29 197 0.0 0.0 0.00 0.00 0.00 85 1009.9
20220124053445 29 180 0.0 0.0 0.00 0.00 0.00 85 1010.0
20220124052943 29 180 0.0 0.0 0.00 0.00 0.00 84 1009.9
20220124052441 29 180 0.0 0.0 0.00 0.00 0.00 84 1010.1
20220124051940 29 180 0.0 0.0 0.00 0.00 0.00 84 1010.0
20220124051438 29 180 0.0 0.0 0.00 0.00 0.00 84 1010.1
20220124050936 29 180 0.0 0.0 0.00 0.00 0.00 84 1010.3
20220124050435 29 186 0.0 0.0 0.00 0.00 0.00 84 1010.0
20220124045935 29 190 0.0 0.0 0.00 0.00 0.00 84 1010.0
20220124045433 29 189 0.0 0.0 0.00 0.00 0.00 84 1010.0
20220124044933 29 189 0.0 0.0 0.00 0.00 0.00 84 1010.0
20220124044432 29 190 0.0 0.0 0.00 0.00 0.00 84 1009.9
20220124043930 29 189 0.0 0.0 0.00 0.00 0.00 84 1010.2
20220124043431 29 189 0.0 0.0 0.00 0.00 0.00 84 1010.0
20220124042930 29 190 0.0 0.0 0.00 0.00 0.00 83 1009.9
20220124042430 29 186 0.0 0.9 0.00 0.00 0.00 82 1010.0
20220124041931 29 194 0.0 0.0 0.00 0.00 0.00 82 1010.2
20220124041429 30 188 0.0 0.0 0.00 0.00 0.00 81 1010.1
20220124040928 30 189 0.0 0.0 0.00 0.00 0.00 79 1010.0
20220124040428 30 187 0.0 0.0 0.00 0.00 0.00 78 1009.8
20220124035928 30 184 0.0 0.9 0.00 0.00 0.00 78 1009.8
20220124035427 30 184 0.0 0.9 0.00 0.00 0.00 77 1009.7
20220124034927 30 184 0.0 0.9 0.00 0.00 0.00 77 1009.8
20220124034426 30 179 1.7 1.7 0.00 0.00 0.00 76 1009.7
20220124033926 30 171 0.0 0.9 0.00 0.00 0.00 74 1009.6
20220124033425 31 171 0.0 0.0 0.00 0.00 0.00 74 1009.7
20220124032924 31 170 0.9 0.9 0.00 0.00 0.00 74 1009.3
20220124032423 31 171 0.9 0.9 0.00 0.00 0.00 75 1009.8
20220124031922 31 161 0.0 0.9 0.00 0.00 0.00 73 1009.6
20220124031420 31 164 0.9 0.9 0.00 0.00 0.00 75 1009.5
20220124030920 31 159 0.9 0.9 0.00 0.00 0.00 75 1009.5
20220124030418 30 152 0.9 0.9 0.00 0.00 0.00 75 1009.5
20220124025917 31 152 0.9 0.9 0.00 0.00 0.00 75 1009.6
20220124025417 31 147 0.9 0.9 0.00 0.00 0.00 75 1009.4
20220124024916 30 166 0.0 0.9 0.00 0.00 0.00 76 1009.4
20220124024415 30 171 0.0 0.9 0.00 0.00 0.00 76 1009.7
20220124023913 31 157 0.9 0.9 0.00 0.00 0.00 75 1009.6
20220124023412 31 146 0.9 0.9 0.00 0.00 0.00 74 1009.6
20220124022912 31 32 1.7 1.7 0.00 0.00 0.00 74 1009.5
20220124022410 30 32 2.6 2.6 0.00 0.00 0.00 75 1009.6
20220124021909 31 7 3.5 6.1 0.00 0.00 0.00 74 1009.4
20220124021408 31 29 4.3 6.1 0.00 0.00 0.00 74 1009.5
20220124020906 31 356 5.2 6.1 0.00 0.00 0.00 74 1009.6
20220124020406 30 333 7.0 7.8 0.00 0.00 0.00 73 1009.6
20220124015905 30 10 3.5 5.2 0.00 0.00 0.00 73 1009.5
20220124015404 31 356 3.5 4.3 0.00 0.00 0.00 74 1009.4
20220124014904 30 17 3.5 4.3 0.00 0.00 0.00 73 1009.5
20220124014403 31 357 4.3 4.3 0.00 0.00 0.00 73 1009.5
20220124013903 31 7 5.2 6.1 0.00 0.00 0.00 72 1009.5
20220124013402 31 15 2.6 4.3 0.00 0.00 0.00 72 1009.5
20220124012900 31 49 1.7 2.6 0.00 0.00 0.00 71 1009.6
20220124012400 31 14 2.6 4.3 0.00 0.00 0.00 71 1009.4
20220124011900 31 11 4.3 5.2 0.00 0.00 0.00 71 1009.6
20220124011400 31 5 4.3 4.3 0.00 0.00 0.00 70 1009.3
20220124010900 31 356 5.2 6.1 0.00 0.00 0.00 71 1009.3
20220124010358 31 1 4.3 5.2 0.00 0.00 0.00 71 1009.5
20220124005858 31 8 4.3 6.1 0.00 0.00 0.00 71 1009.3
20220124005357 31 18 3.5 4.3 0.00 0.00 0.00 71 1009.4
20220124004857 30 15 6.1 6.1 0.00 0.00 0.00 71 1009.3
20220124004356 30 33 4.3 7.0 0.00 0.00 0.00 71 1009.4
20220124003855 30 359 3.5 5.2 0.00 0.00 0.00 71 1009.5
20220124003353 31 3 4.3 5.2 0.00 0.00 0.00 71 1009.2
20220124002851 31 17 5.2 6.1 0.00 0.00 0.00 70 1009.3
20220124002350 31 35 3.5 5.2 0.00 0.00 0.00 71 1009.6
20220124001850 31 342 6.1 7.8 0.00 0.00 0.00 71 1009.4
20220124001349 31 357 3.5 5.2 0.00 0.00 0.00 72 1009.4
20220124000848 31 12 4.3 5.2 0.00 0.00 0.00 72 1009.2
20220124000347 31 4 3.5 4.3 0.00 0.00 0.00 74 1009.3
20220123235844 31 107 1.7 2.6 0.00 0.00 0.00 74 1009.4
20220123235343 31 34 1.7 1.7 0.00 0.00 0.00 74 1009.5
20220123234842 31 5 2.6 2.6 0.00 0.00 0.00 73 1009.4
20220123234343 31 38 2.6 4.3 0.00 0.00 0.00 74 1009.3
20220123233841 31 18 2.6 4.3 0.00 0.00 0.00 74 1009.2
20220123233341 31 24 3.5 4.3 0.00 0.00 0.00 75 1009.1
20220123232841 31 104 2.6 2.6 0.00 0.00 0.00 76 1009.0
20220123232340 30 155 0.9 1.7 0.00 0.00 0.00 78 1009.4
20220123231840 30 46 2.6 4.3 0.00 0.00 0.00 79 1009.0
20220123231339 30 90 1.7 2.6 0.00 0.00 0.00 82 1009.0
20220123230838 30 130 2.6 2.6 0.00 0.00 0.00 83 1009.0
20220123230336 30 59 2.6 4.3 0.00 0.00 0.00 83 1009.1
20220123225836 30 15 2.6 4.3 0.00 0.00 0.00 84 1009.2
20220123225335 30 335 2.6 2.6 0.00 0.00 0.00 86 1009.1
20220123224835 30 24 2.6 2.6 0.00 0.00 0.00 87 1009.2
20220123224335 30 249 1.7 1.7 0.00 0.00 0.00 88 1009.4
20220123223833 30 213 1.7 1.7 0.00 0.00 0.00 89 1009.3
20220123223334 29 179 0.9 1.7 0.00 0.00 0.00 90 1009.2
20220123222832 29 190 0.0 0.9 0.00 0.00 0.00 90 1009.2
20220123222330 29 183 0.0 0.0 0.00 0.00 0.00 90 1009.4
20220123221829 29 189 0.9 1.7 0.00 0.00 0.00 90 1009.4
20220123221328 29 215 0.9 1.7 0.00 0.00 0.00 90 1009.3
20220123220827 29 179 0.9 1.7 0.00 0.00 0.00 91 1009.3
20220123220326 29 182 0.9 0.9 0.00 0.00 0.00 91 1009.1
20220123215826 29 209 0.9 0.9 0.00 0.00 0.00 91 1009.2
20220123215324 29 190 0.0 0.0 0.00 0.00 0.00 92 1009.4
20220123214823 29 178 0.9 0.9 0.00 0.00 0.00 92 1009.6
20220123214322 29 179 0.0 0.0 0.00 0.00 0.00 92 1009.3
20220123213822 29 179 0.9 0.9 0.00 0.00 0.00 92 1009.5
20220123213322 29 179 0.0 0.0 0.00 0.00 0.00 92 1009.6
20220123212821 29 179 0.0 0.0 0.00 0.00 0.00 92 1009.5
20220123212320 29 178 0.0 0.0 0.00 0.00 0.00 91 1009.7
20220123211820 29 173 0.9 0.9 0.00 0.00 0.00 91 1009.8
20220123211320 29 159 0.9 0.9 0.00 0.00 0.00 90 1009.6
20220123210818 29 165 0.9 1.7 0.00 0.00 0.00 89 1009.8
20220123210319 30 95 2.6 2.6 0.00 0.00 0.00 87 1009.7
20220123205818 30 97 2.6 2.6 0.00 0.00 0.00 86 1009.8
20220123205318 30 85 1.7 2.6 0.00 0.00 0.00 83 1009.7
20220123204817 31 29 3.5 5.2 0.00 0.00 0.00 80 1009.7
20220123204315 31 153 0.9 1.7 0.00 0.00 0.00 77 1009.8
20220123203815 31 121 2.6 2.6 0.00 0.00 0.00 77 1009.8
20220123203315 32 60 2.6 2.6 0.00 0.00 0.00 74 1009.8
20220123202814 32 58 1.7 2.6 0.00 0.00 0.00 72 1009.9
20220123202314 33 98 2.6 2.6 0.00 0.00 0.00 71 1010.0
20220123201813 33 84 2.6 2.6 0.00 0.00 0.00 67 1010.0
20220123201313 32 50 1.7 1.7 0.00 0.00 0.00 68 1010.0
20220123200811 33 35 3.5 5.2 0.00 0.00 0.00 66 1009.9
20220123200311 33 67 2.6 2.6 0.00 0.00 0.00 64 1010.2
20220123195811 33 2 4.3 6.1 0.00 0.00 0.00 63 1010.2
20220123195310 34 42 1.7 2.6 0.00 0.00 0.00 63 1010.2
20220123194809 33 16 3.5 4.3 0.00 0.00 0.00 60 1010.2
20220123194308 34 22 1.7 4.3 0.00 0.00 0.00 60 1010.3
20220123193806 34 53 2.6 4.3 0.00 0.00 0.00 58 1010.4
20220123193305 35 142 1.7 1.7 0.00 0.00 0.00 59 1010.2
20220123192804 35 56 2.6 2.6 0.00 0.00 0.00 57 1010.4
20220123192305 34 153 0.0 0.9 0.00 0.00 0.00 58 1010.4
20220123191804 34 240 0.9 0.9 0.00 0.00 0.00 59 1010.6
20220123191303 34 29 2.6 4.3 0.00 0.00 0.00 57 1010.5
20220123190802 34 84 2.6 2.6 0.00 0.00 0.00 58 1010.6
20220123190302 35 44 4.3 6.1 0.00 0.00 0.00 58 1010.9
20220123185802 34 28 3.5 4.3 0.00 0.00 0.00 58 1010.8
20220123185305 34 54 2.6 2.6 0.00 0.00 0.00 58 1010.8
20220123184800 34 39 2.6 2.6 0.00 0.00 0.00 58 1010.7
20220123184300 34 29 2.6 2.6 0.00 0.00 0.00 58 1010.9
20220123183759 34 29 3.5 4.3 0.00 0.00 0.00 60 1010.9
20220123183258 34 27 6.1 6.1 0.00 0.00 0.00 58 1010.9
20220123182758 34 20 3.5 4.3 0.00 0.00 0.00 59 1011.3
20220123182256 34 38 3.5 4.3 0.00 0.00 0.00 58 1011.3
20220123181757 34 57 3.5 4.3 0.00 0.00 0.00 59 1011.4
20220123181256 34 35 2.6 2.6 0.00 0.00 0.00 59 1011.3
20220123180756 34 155 1.7 1.7 0.00 0.00 0.00 60 1011.5
20220123180254 34 101 1.7 2.6 0.00 0.00 0.00 58 1011.9
20220123175754 33 58 2.6 2.6 0.00 0.00 0.00 57 1011.7
20220123175252 33 51 2.6 2.6 0.00 0.00 0.00 58 1011.8
20220123174753 34 52 4.3 5.2 0.00 0.00 0.00 58 1011.5
20220123174251 34 34 5.2 8.7 0.00 0.00 0.00 58 1011.7
20220123173750 34 134 2.6 5.2 0.00 0.00 0.00 59 1012.1
20220123173249 34 46 4.3 5.2 0.00 0.00 0.00 57 1012.0
20220123172748 34 7 3.5 4.3 0.00 0.00 0.00 57 1012.0
20220123172248 34 41 2.6 4.3 0.00 0.00 0.00 58 1012.2
20220123171746 34 6 7.8 9.6 0.00 0.00 0.00 58 1012.5
20220123171245 36 33 6.1 7.8 0.00 0.00 0.00 58 1012.4
20220123170743 35 46 2.6 4.3 0.00 0.00 0.00 58 1012.5
20220123170242 35 20 3.5 4.3 0.00 0.00 0.00 57 1012.8
20220123165741 35 351 6.1 8.7 0.00 0.00 0.00 58 1012.8
20220123165241 35 112 2.6 2.6 0.00 0.00 0.00 56 1012.8
20220123164739 35 151 0.9 1.7 0.00 0.00 0.00 57 1013.0
20220123164238 34 154 0.9 0.9 0.00 0.00 0.00 57 1013.3
20220123163738 34 45 3.5 4.3 0.00 0.00 0.00 57 1013.6
20220123163236 35 17 2.6 2.6 0.00 0.00 0.00 57 1013.7
20220123162736 35 24 4.3 6.1 0.00 0.00 0.00 57 1013.8
20220123162234 35 171 0.0 0.9 0.00 0.00 0.00 57 1013.8
20220123161734 34 47 3.5 4.3 0.00 0.00 0.00 59 1014.0
20220123161233 35 143 1.7 1.7 0.00 0.00 0.00 58 1014.1
20220123160731 33 45 2.6 2.6 0.00 0.00 0.00 59 1014.2
20220123160230 33 34 2.6 2.6 0.00 0.00 0.00 58 1014.3
20220123155729 33 36 3.5 5.2 0.00 0.00 0.00 59 1014.4
20220123155230 33 43 4.3 6.1 0.00 0.00 0.00 60 1014.3
20220123154728 33 143 1.7 1.7 0.00 0.00 0.00 58 1014.3
20220123154226 33 108 3.5 5.2 0.00 0.00 0.00 61 1014.2
20220123153724 33 66 2.6 2.6 0.00 0.00 0.00 60 1014.4
20220123153224 33 41 3.5 5.2 0.00 0.00 0.00 60 1014.6
20220123152723 32 42 3.5 4.3 0.00 0.00 0.00 60 1014.4
20220123152221 32 50 7.0 8.7 0.00 0.00 0.00 61 1014.5
20220123151720 32 63 1.7 2.6 0.00 0.00 0.00 61 1014.7
20220123151219 32 114 0.9 0.9 0.00 0.00 0.00 63 1015.0
20220123150718 31 20 4.3 5.2 0.00 0.00 0.00 62 1015.1
20220123150216 31 67 0.9 1.7 0.00 0.00 0.00 64 1015.3
20220123145717 31 27 1.7 1.7 0.00 0.00 0.00 62 1015.2
20220123145216 30 32 2.6 2.6 0.00 0.00 0.00 62 1015.0
20220123144715 30 18 3.5 5.2 0.00 0.00 0.00 63 1015.1
20220123144215 30 20 6.1 7.0 0.00 0.00 0.00 63 1015.2
20220123143713 30 54 1.7 2.6 0.00 0.00 0.00 64 1015.2
20220123143212 29 18 5.2 6.1 0.00 0.00 0.00 64 1015.3
20220123142711 29 17 5.2 5.2 0.00 0.00 0.00 64 1015.5
20220123142209 29 39 3.5 5.2 0.00 0.00 0.00 64 1015.4
20220123141708 29 23 3.5 5.2 0.00 0.00 0.00 64 1015.5
20220123141208 28 47 3.5 4.3 0.00 0.00 0.00 66 1015.3
20220123140707 27 359 2.6 4.3 0.00 0.00 0.00 68 1015.3
20220123140205 26 138 0.9 0.9 0.00 0.00 0.00 69 1015.4
20220123135705 26 103 2.6 2.6 0.00 0.00 0.00 68 1015.6
20220123135204 26 37 1.7 1.7 0.00 0.00 0.00 69 1015.6
20220123134702 27 138 0.9 1.7 0.00 0.00 0.00 68 1015.7
20220123134202 26 88 1.7 2.6 0.00 0.00 0.00 69 1015.9
20220123133700 26 116 1.7 1.7 0.00 0.00 0.00 68 1015.5
20220123133158 26 132 1.7 1.7 0.00 0.00 0.00 69 1016.0
20220123132657 26 36 1.7 4.3 0.00 0.00 0.00 70 1016.0
20220123132156 25 151 0.9 0.9 0.00 0.00 0.00 70 1016.2
20220123131655 25 153 0.0 0.9 0.00 0.00 0.00 69 1016.3
20220123131153 25 152 0.9 1.7 0.00 0.00 0.00 69 1016.3
20220123130653 25 165 0.0 0.0 0.00 0.00 0.00 70 1016.2
20220123130152 24 148 0.9 0.9 0.00 0.00 0.00 68 1016.3
20220123125651 24 165 0.9 0.9 0.00 0.00 0.00 69 1016.4
20220123125150 24 165 0.9 0.9 0.00 0.00 0.00 69 1016.3
20220123124650 24 163 0.0 0.9 0.00 0.00 0.00 68 1016.6
20220123124148 24 162 0.0 0.9 0.00 0.00 0.00 67 1016.6
20220123123646 23 163 0.9 0.9 0.00 0.00 0.00 67 1016.7
20220123123146 23 162 0.0 0.9 0.00 0.00 0.00 68 1016.9
20220123122645 23 148 1.7 1.7 0.00 0.00 0.00 68 1016.7
20220123122145 23 166 0.0 0.9 0.00 0.00 0.00 66 1017.0
20220123121644 22 166 0.0 0.9 0.00 0.00 0.00 66 1017.1
20220123121145 22 166 0.0 0.0 0.00 0.00 0.00 66 1017.2
20220123120643 22 166 0.9 0.9 0.00 0.00 0.00 66 1017.1
20220123120142 22 166 0.9 0.9 0.00 0.00 0.00 66 1017.0
20220123115640 22 166 0.9 0.9 0.00 0.00 0.00 67 1017.2
20220123115140 21 166 0.0 0.0 0.00 0.00 0.00 67 1017.3
20220123114639 21 166 0.0 0.0 0.00 0.00 0.00 67 1017.2
20220123114139 22 166 0.9 1.7 0.00 0.00 0.00 66 1017.3
20220123113638 22 166 0.9 0.9 0.00 0.00 0.00 65 1017.3
20220123113137 21 166 0.0 0.9 0.00 0.00 0.00 66 1017.3
20220123112636 21 166 0.9 0.9 0.00 0.00 0.00 65 1017.3
20220123112134 21 166 0.0 0.0 0.00 0.00 0.00 65 1017.3
20220123111634 21 165 0.9 1.7 0.00 0.00 0.00 65 1017.2
20220123111135 21 166 0.9 0.9 0.00 0.00 0.00 63 1017.4
20220123110633 21 166 0.0 0.0 0.00 0.00 0.00 63 1017.3
20220123110131 21 166 0.9 0.9 0.00 0.00 0.00 63 1017.1
20220123105631 21 166 0.0 0.9 0.00 0.00 0.00 63 1017.1
20220123105131 21 166 0.0 0.0 0.00 0.00 0.00 64 1017.0
20220123104629 21 165 0.9 0.9 0.00 0.00 0.00 64 1017.5
20220123104130 21 166 0.9 0.9 0.00 0.00 0.00 64 1017.2